Location: Oshawa
(43.9000°N, 78.8670°W)
Time: 21:01:25
(UTC-05:00)

Cosmos 839 Rocket - Visible Passes

Search period start: 21 December 2014 00:00
Search period end: 31 December 2014 00:00
Orbit: 968 x 2085 km, 65.9° (Epoch: 20 December)

Date Brightness Start Highest point End Pass type
(mag) Time Alt. Az. Time Alt. Az. Time Alt. Az.
21 Dec 4.1 17:49:22 10° SSW 17:56:04 88° WNW 18:02:01 11° NNE visible
21 Dec 5.9 19:52:29 10° W 19:57:00 20° NNW 19:58:38 18° NNW visible
22 Dec 4.2 17:07:38 10° SSW 17:14:14 60° ESE 17:20:16 10° NE visible
22 Dec 5.6 19:09:15 10° W 19:14:37 28° NW 19:18:07 17° N visible
23 Dec 5.1 18:26:22 10° WSW 18:32:24 40° NW 18:37:35 13° NNE visible
23 Dec 6.4 20:32:14 10° NW 20:34:12 12° NNW 20:34:12 12° NNW visible
24 Dec 4.5 17:43:51 10° SW 17:50:20 60° NW 17:56:25 10° NNE visible
24 Dec 6.1 19:48:20 10° WNW 19:51:51 15° NNW 19:53:38 14° N visible
25 Dec 5.9 19:04:46 10° W 19:09:19 20° NW 19:13:03 13° N visible
26 Dec 5.6 18:21:33 10° W 18:26:56 28° NW 18:32:12 10° NNE visible
26 Dec 6.5 20:28:47 10° NNW 20:29:04 10° NNW 20:29:04 10° NNW visible
27 Dec 5.1 17:38:42 10° WSW 17:44:43 40° NW 17:50:31 10° NNE visible
27 Dec 6.3 19:44:28 10° NW 19:46:52 12° NNW 19:48:27 11° N visible
28 Dec 6.1 19:00:36 10° WNW 19:04:10 15° NNW 19:07:47 10° N visible
29 Dec 5.9 18:17:04 10° W 18:21:37 21° NW 18:26:12 10° NNE visible
30 Dec 5.5 17:33:52 10° W 17:39:15 28° NW 17:44:33 10° NNE visible
30 Dec 6.3 19:40:55 10° NNW 19:42:00 10° N 19:43:05 10° N visible
